TimeEST,TemperatureF,Dew PointF,Humidity,Sea Level PressureIn,VisibilityMPH,Wind Direction,Wind SpeedMPH,Gust SpeedMPH,PrecipitationIn,Events,Conditions,WindDirDegrees,DateUTC
12:15 AM,62.6,60.8,94,30.05,10.0,SSW,3.5,-,N/A,,Scattered Clouds,200,2014-02-21 05:15:00
12:35 AM,60.8,60.8,100,30.04,10.0,South,3.5,-,N/A,,Clear,190,2014-02-21 05:35:00
12:55 AM,60.8,60.8,100,30.04,10.0,South,3.5,-,N/A,,Clear,190,2014-02-21 05:55:00
1:15 AM,60.8,60.8,100,30.03,10.0,SSW,3.5,-,N/A,,Scattered Clouds,200,2014-02-21 06:15:00
1:35 AM,60.8,60.8,100,30.03,10.0,Calm,Calm,-,N/A,,Scattered Clouds,0,2014-02-21 06:35:00
1:55 AM,59.0,59.0,100,30.02,10.0,Calm,Calm,-,N/A,,Clear,0,2014-02-21 06:55:00
2:15 AM,60.8,60.8,100,30.02,10.0,Calm,Calm,-,N/A,,Clear,0,2014-02-21 07:15:00
2:35 AM,60.8,60.8,100,30.02,10.0,Calm,Calm,-,N/A,,Clear,0,2014-02-21 07:35:00
2:55 AM,59.0,59.0,100,30.01,7.0,Calm,Calm,-,N/A,,Clear,0,2014-02-21 07:55:00
3:15 AM,59.0,59.0,100,30.00,10.0,South,3.5,-,N/A,,Scattered Clouds,190,2014-02-21 08:15:00
3:35 AM,59.0,59.0,100,30.00,10.0,South,3.5,-,N/A,,Clear,190,2014-02-21 08:35:00
3:55 AM,60.8,60.8,100,29.99,10.0,South,4.6,-,N/A,,Clear,190,2014-02-21 08:55:00
4:15 AM,60.8,60.8,100,29.99,10.0,SSW,3.5,-,N/A,,Clear,210,2014-02-21 09:15:00
4:35 AM,60.8,60.8,100,29.99,10.0,SSW,3.5,-,N/A,,Clear,210,2014-02-21 09:35:00
4:55 AM,60.8,60.8,100,29.99,10.0,SSW,3.5,-,N/A,,Scattered Clouds,200,2014-02-21 09:55:00
5:15 AM,62.6,62.6,100,29.99,10.0,SSW,3.5,-,N/A,,Mostly Cloudy,200,2014-02-21 10:15:00
5:35 AM,62.6,62.6,100,30.00,10.0,SSW,5.8,-,N/A,,Mostly Cloudy,210,2014-02-21 10:35:00
5:55 AM,62.6,62.6,100,29.99,10.0,SSW,4.6,-,N/A,,Mostly Cloudy,200,2014-02-21 10:55:00
6:15 AM,62.6,62.6,100,29.99,10.0,SSW,5.8,-,N/A,,Clear,210,2014-02-21 11:15:00
6:35 AM,62.6,62.6,100,29.99,10.0,SSW,6.9,-,N/A,,Clear,210,2014-02-21 11:35:00
6:55 AM,62.6,62.6,100,29.99,10.0,SSW,8.1,-,N/A,,Clear,210,2014-02-21 11:55:00
7:15 AM,62.6,62.6,100,30.00,10.0,SW,5.8,-,N/A,,Scattered Clouds,220,2014-02-21 12:15:00
7:35 AM,64.4,64.4,100,30.00,10.0,SW,5.8,-,N/A,,Mostly Cloudy,220,2014-02-21 12:35:00
7:55 AM,64.4,64.4,100,30.00,10.0,SW,8.1,-,N/A,,Overcast,220,2014-02-21 12:55:00
8:15 AM,64.4,64.4,100,30.00,10.0,SSW,9.2,16.1,N/A,,Overcast,210,2014-02-21 13:15:00
8:35 AM,64.4,64.4,100,30.00,10.0,SSW,11.5,16.1,N/A,,Overcast,210,2014-02-21 13:35:00
8:55 AM,66.2,66.2,100,30.01,10.0,SSW,10.4,17.3,N/A,,Overcast,210,2014-02-21 13:55:00
9:15 AM,68.0,66.2,94,30.00,10.0,SW,11.5,17.3,N/A,,Overcast,220,2014-02-21 14:15:00
9:35 AM,68.0,66.2,94,30.00,10.0,SW,9.2,-,N/A,,Overcast,220,2014-02-21 14:35:00
9:55 AM,68.0,66.2,94,30.00,10.0,SSW,9.2,-,N/A,,Overcast,210,2014-02-21 14:55:00
10:15 AM,68.0,68.0,100,30.01,10.0,SW,8.1,-,N/A,Rain-Thunderstorm,Light Thunderstorms and Rain,230,2014-02-21 15:15:00
10:35 AM,68.0,68.0,100,30.03,2.0,West,11.5,19.6,N/A,Rain-Thunderstorm,Heavy Thunderstorms and Rain,270,2014-02-21 15:35:00
10:55 AM,62.6,62.6,100,30.05,5.0,West,10.4,21.9,N/A,Rain-Thunderstorm,Rain,260,2014-02-21 15:55:00
11:15 AM,60.8,60.8,100,30.03,10.0,West,4.6,-,N/A,Rain,Light Rain,260,2014-02-21 16:15:00
11:35 AM,60.8,60.8,100,30.03,7.0,SW,4.6,-,N/A,Rain,Rain,230,2014-02-21 16:35:00
11:55 AM,60.8,60.8,100,30.00,5.0,South,4.6,-,N/A,Rain-Thunderstorm,Rain,180,2014-02-21 16:55:00
12:15 PM,60.8,60.8,100,30.01,10.0,WSW,3.5,-,N/A,Rain-Thunderstorm,Rain,240,2014-02-21 17:15:00
12:35 PM,60.8,60.8,100,30.00,10.0,SW,5.8,-,N/A,Rain-Thunderstorm,Light Thunderstorms and Rain,220,2014-02-21 17:35:00
12:55 PM,60.8,60.8,100,30.00,10.0,SW,3.5,-,N/A,,Mostly Cloudy,230,2014-02-21 17:55:00
1:15 PM,60.8,60.8,100,29.99,10.0,SSW,4.6,-,N/A,,Scattered Clouds,200,2014-02-21 18:15:00
1:35 PM,60.8,60.8,100,29.99,10.0,SW,5.8,-,N/A,,Mostly Cloudy,220,2014-02-21 18:35:00
1:55 PM,62.6,62.6,100,29.99,10.0,SW,4.6,-,N/A,,Overcast,230,2014-02-21 18:55:00
2:15 PM,62.6,62.6,100,29.99,10.0,SW,4.6,-,N/A,,Overcast,230,2014-02-21 19:15:00
2:35 PM,64.4,62.6,94,29.99,10.0,WSW,6.9,-,N/A,,Overcast,240,2014-02-21 19:35:00
2:55 PM,64.4,62.6,94,29.99,10.0,SW,4.6,-,N/A,,Overcast,230,2014-02-21 19:55:00
3:15 PM,66.2,64.4,94,29.99,10.0,Calm,Calm,-,N/A,,Overcast,0,2014-02-21 20:15:00
3:35 PM,68.0,64.4,88,29.98,10.0,SSW,3.5,-,N/A,,Overcast,210,2014-02-21 20:35:00
3:55 PM,68.0,64.4,88,29.98,10.0,SW,5.8,-,N/A,,Overcast,230,2014-02-21 20:55:00
4:15 PM,68.0,64.4,88,29.98,10.0,West,3.5,-,N/A,,Overcast,260,2014-02-21 21:15:00
4:35 PM,68.0,64.4,88,29.98,10.0,SW,4.6,-,N/A,,Overcast,230,2014-02-21 21:35:00
4:55 PM,66.2,62.6,88,29.98,10.0,NW,10.4,-,N/A,,Overcast,320,2014-02-21 21:55:00
5:15 PM,64.4,62.6,94,30.00,10.0,WNW,8.1,-,N/A,,Overcast,300,2014-02-21 22:15:00
5:35 PM,62.6,60.8,94,30.00,10.0,NW,8.1,-,N/A,,Overcast,320,2014-02-21 22:35:00
5:55 PM,62.6,59.0,88,30.00,10.0,NW,9.2,-,N/A,,Overcast,310,2014-02-21 22:55:00
6:15 PM,62.6,59.0,88,30.01,10.0,NW,5.8,-,N/A,,Overcast,310,2014-02-21 23:15:00
6:35 PM,62.6,59.0,88,30.01,10.0,NW,6.9,-,N/A,,Overcast,310,2014-02-21 23:35:00
6:55 PM,62.6,59.0,88,30.01,10.0,NW,5.8,-,N/A,,Overcast,310,2014-02-21 23:55:00
7:15 PM,60.8,59.0,94,30.02,10.0,West,3.5,-,N/A,,Overcast,280,2014-02-22 00:15:00
7:35 PM,60.8,59.0,94,30.03,10.0,West,3.5,-,N/A,,Overcast,280,2014-02-22 00:35:00
7:55 PM,60.8,59.0,94,30.03,10.0,Calm,Calm,-,N/A,,Overcast,0,2014-02-22 00:55:00
8:15 PM,60.8,59.0,94,30.04,10.0,Calm,Calm,-,N/A,,Overcast,0,2014-02-22 01:15:00
8:35 PM,60.8,59.0,94,30.04,10.0,WNW,3.5,-,N/A,,Overcast,300,2014-02-22 01:35:00
8:55 PM,60.8,57.2,88,30.04,10.0,NW,4.6,-,N/A,,Overcast,320,2014-02-22 01:55:00
9:15 PM,60.8,57.2,88,30.04,10.0,NNW,3.5,-,N/A,,Overcast,330,2014-02-22 02:15:00
9:35 PM,60.8,55.4,82,30.05,10.0,Calm,Calm,-,N/A,,Overcast,0,2014-02-22 02:35:00
9:55 PM,60.8,55.4,82,30.06,10.0,Calm,Calm,-,N/A,,Overcast,0,2014-02-22 02:55:00
10:15 PM,60.8,53.6,77,30.06,10.0,North,3.5,-,N/A,,Overcast,10,2014-02-22 03:15:00
10:35 PM,60.8,57.2,88,30.07,10.0,Calm,Calm,-,N/A,,Overcast,0,2014-02-22 03:35:00
10:55 PM,60.8,53.6,77,30.07,10.0,NNE,4.6,-,N/A,,Overcast,30,2014-02-22 03:55:00
11:15 PM,60.8,51.8,72,30.07,10.0,NE,3.5,-,N/A,,Overcast,40,2014-02-22 04:15:00
11:35 PM,60.8,50.0,68,30.07,10.0,NE,4.6,-,N/A,,Overcast,40,2014-02-22 04:35:00
11:55 PM,59.0,50.0,72,30.07,10.0,NNE,3.5,-,N/A,,Overcast,30,2014-02-22 04:55:00